Time,TemperatureF,DewpointF,PressureIn,WindDirection,WindDirectionDegrees,WindSpeedMPH,WindSpeedGustMPH,Humidity,HourlyPrecipIn,Conditions,Clouds,dailyrainin,SoftwareType,DateUTC
2013-10-08 00:01:00,75.7,73.2,29.80,SSW,202,0.0,0.0,92,0.00,BKN,,0.03,WeatherDisplay:10.37,2013-10-08 04:01:00,
2013-10-08 00:02:00,75.7,73.2,29.80,SSW,202,0.0,0.0,92,0.00,RA,,0.00,WeatherDisplay:10.37,2013-10-08 04:02:00,
2013-10-08 00:06:00,75.7,73.2,29.80,SSW,202,0.0,0.0,92,0.00,RA,,0.00,WeatherDisplay:10.37,2013-10-08 04:06:00,
2013-10-08 00:09:00,75.7,73.2,29.80,SSW,202,0.0,0.0,92,0.00,RA,,0.00,WeatherDisplay:10.37,2013-10-08 04:09:00,
2013-10-08 00:10:00,75.7,73.2,29.80,SSW,202,0.0,2.0,92,0.00,OVC,OVC,0.00,WeatherDisplay:10.37,2013-10-08 04:10:00,
2013-10-08 00:15:00,75.7,73.2,29.80,SSW,202,0.0,2.0,92,0.00,OVC,OVC,0.00,WeatherDisplay:10.37,2013-10-08 04:15:00,
2013-10-08 00:20:00,75.7,73.2,29.80,SSW,192,0.0,3.0,92,0.00,OVC,OVC,0.00,WeatherDisplay:10.37,2013-10-08 04:20:00,
2013-10-08 00:25:00,75.7,73.2,29.80,SW,220,1.0,2.0,92,0.00,OVC,OVC,0.00,WeatherDisplay:10.37,2013-10-08 04:25:00,
2013-10-08 00:30:00,75.7,73.2,29.80,West,259,0.0,1.0,92,0.00,OVC,OVC,0.00,WeatherDisplay:10.37,2013-10-08 04:30:00,
2013-10-08 00:35:00,75.7,73.2,29.80,West,269,0.0,2.0,92,0.00,OVC,OVC,0.00,WeatherDisplay:10.37,2013-10-08 04:35:00,
2013-10-08 00:40:00,75.9,73.7,29.79,West,270,0.0,1.0,93,0.00,OVC,OVC,0.00,WeatherDisplay:10.37,2013-10-08 04:40:00,
2013-10-08 00:45:00,75.9,73.7,29.79,West,270,0.0,0.0,93,0.00,OVC,OVC,0.00,WeatherDisplay:10.37,2013-10-08 04:45:00,
2013-10-08 00:50:00,75.9,73.7,29.79,West,270,0.0,0.0,93,0.00,BKN,BKN,0.00,WeatherDisplay:10.37,2013-10-08 04:50:00,
2013-10-08 00:55:00,75.9,73.7,29.79,West,270,0.0,0.0,93,0.00,BKN,BKN,0.00,WeatherDisplay:10.37,2013-10-08 04:55:00,
2013-10-08 01:00:00,75.9,73.7,29.78,West,270,0.0,0.0,93,0.00,BKN,BKN,0.00,WeatherDisplay:10.37,2013-10-08 05:00:00,
2013-10-08 01:05:00,75.9,73.7,29.79,West,270,0.0,0.0,93,0.00,BKN,,0.00,WeatherDisplay:10.37,2013-10-08 05:05:00,
2013-10-08 01:10:00,75.9,73.7,29.78,West,270,0.0,0.0,93,0.00,BKN,,0.00,WeatherDisplay:10.37,2013-10-08 05:10:00,
2013-10-08 01:15:00,76.1,73.9,29.78,West,270,1.2,1.2,93,0.00,BKN,,0.00,WeatherDisplay:10.37,2013-10-08 05:15:00,
2013-10-08 01:20:00,76.1,73.9,29.78,WNW,292,2.0,0.0,93,0.00,OVC,,0.00,WeatherDisplay:10.37,2013-10-08 05:20:00,
2013-10-08 01:25:00,76.1,73.9,29.78,West,270,1.2,0.0,93,0.00,OVC,,0.00,WeatherDisplay:10.37,2013-10-08 05:25:00,
2013-10-08 01:30:00,76.3,74.1,29.78,WNW,292,3.5,3.5,93,0.00,OVC,,0.00,WeatherDisplay:10.37,2013-10-08 05:30:00,
2013-10-08 01:35:00,76.3,74.1,29.78,West,270,0.0,0.0,93,0.00,OVC,,0.00,WeatherDisplay:10.37,2013-10-08 05:35:00,
2013-10-08 01:41:00,76.3,74.1,29.78,WNW,292,2.3,2.3,93,0.00,OVC,,0.00,WeatherDisplay:10.37,2013-10-08 05:41:00,
2013-10-08 01:46:00,76.3,74.1,29.78,WSW,248,2.7,2.7,93,0.00,OVC,,0.00,WeatherDisplay:10.37,2013-10-08 05:46:00,
2013-10-08 01:51:00,76.3,74.1,29.78,West,270,1.6,1.6,93,0.00,OVC,,0.00,WeatherDisplay:10.37,2013-10-08 05:51:00,
2013-10-08 01:56:00,76.3,74.1,29.78,West,270,0.0,0.0,93,0.00,OVC,,0.00,WeatherDisplay:10.37,2013-10-08 05:56:00,
2013-10-08 02:01:00,76.3,74.1,29.78,West,270,0.0,0.0,93,0.00,OVC,,0.00,WeatherDisplay:10.37,2013-10-08 06:01:00,
2013-10-08 02:06:00,76.3,74.1,29.78,West,270,1.3,0.0,93,0.00,OVC,,0.00,WeatherDisplay:10.37,2013-10-08 06:06:00,
2013-10-08 02:11:00,76.3,74.1,29.78,West,270,0.2,0.0,93,0.00,OVC,,0.00,WeatherDisplay:10.37,2013-10-08 06:11:00,
2013-10-08 02:16:00,76.3,74.1,29.78,West,270,1.2,0.0,93,0.00,OVC,,0.00,WeatherDisplay:10.37,2013-10-08 06:16:00,
2013-10-08 02:21:00,76.3,74.1,29.78,West,270,0.0,0.0,93,0.00,OVC,,0.00,WeatherDisplay:10.37,2013-10-08 06:21:00,
2013-10-08 02:26:00,76.3,74.1,29.79,West,270,0.0,0.0,93,0.00,OVC,,0.00,WeatherDisplay:10.37,2013-10-08 06:26:00,
2013-10-08 02:31:00,76.3,74.1,29.78,West,270,0.0,0.0,93,0.00,OVC,,0.00,WeatherDisplay:10.37,2013-10-08 06:31:00,
2013-10-08 02:36:00,76.5,74.3,29.79,West,270,0.0,0.0,93,0.00,OVC,,0.00,WeatherDisplay:10.37,2013-10-08 06:36:00,
2013-10-08 02:41:00,76.5,74.3,29.78,West,270,0.0,0.0,93,0.00,OVC,,0.00,WeatherDisplay:10.37,2013-10-08 06:41:00,
2013-10-08 02:46:00,76.5,74.3,29.78,West,270,0.0,0.0,93,0.00,OVC,,0.00,WeatherDisplay:10.37,2013-10-08 06:46:00,
2013-10-08 02:51:00,76.5,74.3,29.79,West,270,0.0,0.0,93,0.00,OVC,,0.00,WeatherDisplay:10.37,2013-10-08 06:51:00,
2013-10-08 02:56:00,76.5,74.3,29.79,North,0,0.0,0.0,93,0.00,OVC,,0.00,WeatherDisplay:10.37,2013-10-08 06:56:00,
2013-10-08 03:01:00,76.3,74.1,29.79,NE,45,0.0,0.0,93,0.00,OVC,,0.00,WeatherDisplay:10.37,2013-10-08 07:01:00,
2013-10-08 03:06:00,76.3,74.1,29.78,West,270,3.5,3.5,93,0.00,OVC,,0.00,WeatherDisplay:10.37,2013-10-08 07:06:00,
2013-10-08 03:11:00,76.1,73.9,29.78,West,270,0.0,0.0,93,0.00,OVC,,0.00,WeatherDisplay:10.37,2013-10-08 07:11:00,
2013-10-08 03:16:00,76.1,73.9,29.78,West,270,0.0,0.0,93,0.00,OVC,,0.00,WeatherDisplay:10.37,2013-10-08 07:16:00,
2013-10-08 03:21:00,76.1,73.9,29.78,West,270,0.0,0.0,93,0.00,OVC,,0.00,WeatherDisplay:10.37,2013-10-08 07:21:00,
2013-10-08 03:26:00,75.9,73.7,29.79,SW,225,0.0,0.0,93,0.00,OVC,,0.00,WeatherDisplay:10.37,2013-10-08 07:26:00,
2013-10-08 03:31:00,75.9,73.7,29.79,WNW,292,3.6,3.6,93,0.00,OVC,,0.00,WeatherDisplay:10.37,2013-10-08 07:31:00,
2013-10-08 03:36:00,75.9,73.7,29.79,WSW,248,0.0,0.0,93,0.00,OVC,,0.00,WeatherDisplay:10.37,2013-10-08 07:36:00,
2013-10-08 03:41:00,75.9,73.7,29.79,WNW,292,3.6,3.6,93,0.00,OVC,,0.00,WeatherDisplay:10.37,2013-10-08 07:41:00,
2013-10-08 03:46:00,75.7,73.6,29.80,NNW,338,0.0,0.0,93,0.00,OVC,,0.00,WeatherDisplay:10.37,2013-10-08 07:46:00,
2013-10-08 03:51:00,75.7,73.6,29.80,SE,135,0.0,0.0,93,0.00,OVC,,0.00,WeatherDisplay:10.37,2013-10-08 07:51:00,
2013-10-08 03:56:00,75.6,73.1,29.80,WSW,248,0.0,0.0,92,0.00,OVC,,0.00,WeatherDisplay:10.37,2013-10-08 07:56:00,
2013-10-08 04:01:00,75.6,73.1,29.80,West,270,0.0,0.0,92,0.00,OVC,,0.00,WeatherDisplay:10.37,2013-10-08 08:01:00,
2013-10-08 04:06:00,75.4,72.9,29.80,NW,315,0.0,0.0,92,0.00,OVC,,0.00,WeatherDisplay:10.37,2013-10-08 08:06:00,
2013-10-08 04:11:00,75.4,72.9,29.80,ENE,68,0.0,0.0,92,0.00,OVC,,0.00,WeatherDisplay:10.37,2013-10-08 08:11:00,
2013-10-08 04:16:00,75.4,72.9,29.81,NNE,22,0.0,0.2,92,0.00,OVC,,0.00,WeatherDisplay:10.37,2013-10-08 08:16:00,
2013-10-08 04:21:00,75.4,72.9,29.81,NNE,22,0.0,0.0,92,0.00,OVC,,0.00,WeatherDisplay:10.37,2013-10-08 08:21:00,
2013-10-08 04:26:00,75.2,72.7,29.81,NNE,22,0.0,0.0,92,0.00,OVC,,0.00,WeatherDisplay:10.37,2013-10-08 08:26:00,
2013-10-08 04:31:00,75.2,73.0,29.81,NNE,22,0.0,0.0,93,0.00,OVC,,0.00,WeatherDisplay:10.37,2013-10-08 08:31:00,
2013-10-08 04:36:00,75.0,72.5,29.81,NNE,22,0.0,0.0,92,0.00,OVC,,0.00,WeatherDisplay:10.37,2013-10-08 08:36:00,
2013-10-08 04:41:00,75.0,72.5,29.81,NNE,22,0.0,0.0,92,0.00,OVC,,0.00,WeatherDisplay:10.37,2013-10-08 08:41:00,
2013-10-08 04:46:00,75.0,72.5,29.80,North,0,2.3,2.3,92,0.00,OVC,,0.00,WeatherDisplay:10.37,2013-10-08 08:46:00,
2013-10-08 04:51:00,75.0,72.5,29.80,North,0,0.0,0.0,92,0.00,OVC,,0.00,WeatherDisplay:10.37,2013-10-08 08:51:00,
2013-10-08 04:56:00,75.0,72.5,29.80,North,0,0.0,0.0,92,0.00,OVC,,0.00,WeatherDisplay:10.37,2013-10-08 08:56:00,
2013-10-08 05:01:00,75.0,72.5,29.80,North,0,0.0,0.0,92,0.00,SCT,,0.00,WeatherDisplay:10.37,2013-10-08 09:01:00,
2013-10-08 05:06:00,74.8,72.4,29.81,North,0,0.0,0.0,92,0.00,SCT,,0.00,WeatherDisplay:10.37,2013-10-08 09:06:00,
2013-10-08 05:11:00,74.8,72.7,29.81,NNW,338,4.6,0.0,93,0.00,SCT,,0.00,WeatherDisplay:10.37,2013-10-08 09:11:00,
2013-10-08 05:16:00,74.8,72.7,29.81,NNW,338,0.0,0.0,93,0.00,SCT,,0.00,WeatherDisplay:10.37,2013-10-08 09:16:00,
2013-10-08 05:21:00,74.8,72.7,29.81,NNW,338,0.0,0.0,93,0.00,SCT,,0.00,WeatherDisplay:10.37,2013-10-08 09:21:00,
2013-10-08 05:26:00,74.8,72.7,29.81,NNW,338,0.0,0.0,93,0.00,SCT,,0.00,WeatherDisplay:10.37,2013-10-08 09:26:00,
2013-10-08 05:31:00,74.8,72.7,29.82,NNW,338,0.0,0.0,93,0.00,SCT,,0.00,WeatherDisplay:10.37,2013-10-08 09:31:00,
2013-10-08 05:36:00,74.8,72.7,29.81,West,270,0.0,0.0,93,0.00,BKN,,0.00,WeatherDisplay:10.37,2013-10-08 09:36:00,
2013-10-08 05:41:00,74.8,72.7,29.81,West,270,0.0,0.0,93,0.00,BKN,,0.00,WeatherDisplay:10.37,2013-10-08 09:41:00,
2013-10-08 05:46:00,74.8,72.7,29.81,West,270,0.0,0.0,93,0.00,BKN,,0.00,WeatherDisplay:10.37,2013-10-08 09:46:00,
2013-10-08 05:51:00,74.8,72.7,29.81,West,270,0.0,0.0,93,0.00,BKN,,0.00,WeatherDisplay:10.37,2013-10-08 09:51:00,
2013-10-08 05:56:00,74.8,72.7,29.82,West,270,0.0,0.0,93,0.00,BKN,,0.00,WeatherDisplay:10.37,2013-10-08 09:56:00,
2013-10-08 06:01:00,75.0,72.9,29.82,West,270,0.0,0.0,93,0.00,BKN,,0.00,WeatherDisplay:10.37,2013-10-08 10:01:00,
2013-10-08 06:06:00,75.0,72.9,29.82,West,270,0.0,0.0,93,0.00,OVC,,0.00,WeatherDisplay:10.37,2013-10-08 10:06:00,
2013-10-08 06:11:00,75.0,72.9,29.82,West,270,0.0,0.0,93,0.00,OVC,,0.00,WeatherDisplay:10.37,2013-10-08 10:11:00,
2013-10-08 06:16:00,75.0,72.5,29.82,West,270,0.0,0.0,92,0.00,OVC,,0.00,WeatherDisplay:10.37,2013-10-08 10:16:00,
2013-10-08 06:21:00,75.0,72.5,29.82,West,270,0.0,0.0,92,0.00,OVC,,0.00,WeatherDisplay:10.37,2013-10-08 10:21:00,
2013-10-08 06:26:00,75.0,72.5,29.82,West,270,0.0,0.0,92,0.00,OVC,,0.00,WeatherDisplay:10.37,2013-10-08 10:26:00,
2013-10-08 06:31:00,75.0,72.5,29.82,West,270,0.0,0.0,92,0.00,OVC,,0.00,WeatherDisplay:10.37,2013-10-08 10:31:00,
2013-10-08 06:36:00,75.0,72.5,29.82,West,270,0.0,0.0,92,0.00,OVC,,0.00,WeatherDisplay:10.37,2013-10-08 10:36:00,
2013-10-08 06:41:00,75.0,72.5,29.82,NNW,338,0.0,0.0,92,0.00,OVC,,0.00,WeatherDisplay:10.37,2013-10-08 10:41:00,
2013-10-08 06:46:00,75.0,72.5,29.82,NNW,338,0.0,0.0,92,0.00,BKN,,0.00,WeatherDisplay:10.37,2013-10-08 10:46:00,
2013-10-08 06:51:00,75.0,72.5,29.83,NNW,338,0.0,0.0,92,0.00,BKN,,0.00,WeatherDisplay:10.37,2013-10-08 10:51:00,
2013-10-08 06:56:00,75.0,72.5,29.83,NNW,338,0.0,0.0,92,0.00,BKN,,0.00,WeatherDisplay:10.37,2013-10-08 10:56:00,
2013-10-08 07:01:00,75.0,72.5,29.83,NNW,338,0.0,0.0,92,0.00,BKN,,0.00,WeatherDisplay:10.37,2013-10-08 11:01:00,
2013-10-08 07:06:00,75.0,72.5,29.83,NNW,338,0.0,0.0,92,0.00,BKN,,0.00,WeatherDisplay:10.37,2013-10-08 11:06:00,
2013-10-08 07:11:00,75.0,72.9,29.83,NNW,338,0.0,0.0,93,0.00,BKN,,0.00,WeatherDisplay:10.37,2013-10-08 11:11:00,
2013-10-08 07:16:00,75.0,72.9,29.83,NNW,338,1.1,1.1,93,0.00,BKN,,0.00,WeatherDisplay:10.37,2013-10-08 11:16:00,
2013-10-08 07:21:00,75.0,72.5,29.83,SW,225,0.0,0.0,92,0.00,BKN,,0.00,WeatherDisplay:10.37,2013-10-08 11:21:00,
2013-10-08 07:26:00,75.0,72.5,29.84,SW,225,0.0,0.0,92,0.00,BKN,,0.00,WeatherDisplay:10.37,2013-10-08 11:26:00,
2013-10-08 07:31:00,75.0,72.5,29.84,SW,225,0.0,0.0,92,0.00,BKN,,0.00,WeatherDisplay:10.37,2013-10-08 11:31:00,
2013-10-08 07:36:00,75.0,72.5,29.84,WNW,292,4.2,0.0,92,0.00,BKN,,0.00,WeatherDisplay:10.37,2013-10-08 11:36:00,
2013-10-08 07:41:00,75.0,72.5,29.84,NW,315,0.0,0.0,92,0.00,BKN,,0.00,WeatherDisplay:10.37,2013-10-08 11:41:00,
2013-10-08 07:46:00,75.0,72.5,29.84,NNW,338,0.0,0.0,92,0.00,BKN,,0.00,WeatherDisplay:10.37,2013-10-08 11:46:00,
2013-10-08 07:51:00,75.0,72.5,29.85,NNW,338,0.0,0.0,92,0.00,BKN,,0.00,WeatherDisplay:10.37,2013-10-08 11:51:00,
2013-10-08 07:57:00,75.0,72.5,29.85,NW,315,3.5,3.5,92,0.00,BKN,,0.00,WeatherDisplay:10.37,2013-10-08 11:57:00,
2013-10-08 08:02:00,75.0,72.5,29.85,NW,315,0.0,0.0,92,0.00,BKN,,0.00,WeatherDisplay:10.37,2013-10-08 12:02:00,
2013-10-08 08:07:00,75.0,72.5,29.85,NNW,338,3.6,0.0,92,0.00,OVC,,0.00,WeatherDisplay:10.37,2013-10-08 12:07:00,
2013-10-08 08:12:00,75.0,72.5,29.85,NNW,338,0.0,0.0,92,0.00,OVC,,0.00,WeatherDisplay:10.37,2013-10-08 12:12:00,
2013-10-08 08:17:00,75.0,72.5,29.85,NNW,338,0.0,0.0,92,0.00,OVC,,0.00,WeatherDisplay:10.37,2013-10-08 12:17:00,
2013-10-08 08:22:00,75.0,72.5,29.85,NNW,338,0.0,0.0,92,0.00,OVC,,0.00,WeatherDisplay:10.37,2013-10-08 12:22:00,
2013-10-08 08:27:00,75.0,72.5,29.86,NNW,338,0.0,0.0,92,0.00,OVC,,0.00,WeatherDisplay:10.37,2013-10-08 12:27:00,
2013-10-08 08:32:00,75.0,72.5,29.86,North,0,0.0,0.0,92,0.00,OVC,,0.00,WeatherDisplay:10.37,2013-10-08 12:32:00,
2013-10-08 08:37:00,75.0,72.5,29.86,NNW,338,0.0,0.0,92,0.00,OVC,,0.00,WeatherDisplay:10.37,2013-10-08 12:37:00,
2013-10-08 08:42:00,75.0,72.5,29.86,NNW,338,0.0,0.0,92,0.00,OVC,,0.00,WeatherDisplay:10.37,2013-10-08 12:42:00,
2013-10-08 08:47:00,75.2,72.7,29.86,NNW,338,2.3,0.0,92,0.00,OVC,,0.00,WeatherDisplay:10.37,2013-10-08 12:47:00,
2013-10-08 08:52:00,75.4,72.9,29.87,WSW,248,0.0,0.0,92,0.00,OVC,,0.00,WeatherDisplay:10.37,2013-10-08 12:52:00,
2013-10-08 08:57:00,75.4,72.9,29.86,WSW,248,1.6,1.6,92,0.00,OVC,,0.00,WeatherDisplay:10.37,2013-10-08 12:57:00,
2013-10-08 09:02:00,75.4,72.9,29.87,WSW,248,0.0,0.0,92,0.00,OVC,,0.00,WeatherDisplay:10.37,2013-10-08 13:02:00,
2013-10-08 09:07:00,75.4,72.9,29.87,WSW,248,0.0,0.0,92,0.00,OVC,,0.00,WeatherDisplay:10.37,2013-10-08 13:07:00,
2013-10-08 09:12:00,75.6,72.7,29.87,WSW,248,0.0,0.0,91,0.00,OVC,,0.00,WeatherDisplay:10.37,2013-10-08 13:12:00,
2013-10-08 09:17:00,75.6,72.7,29.87,WSW,248,0.0,0.0,91,0.00,OVC,,0.00,WeatherDisplay:10.37,2013-10-08 13:17:00,
2013-10-08 09:22:00,75.6,72.7,29.87,WSW,248,0.0,0.0,91,0.00,SCT,,0.00,WeatherDisplay:10.37,2013-10-08 13:22:00,
2013-10-08 09:27:00,75.7,72.9,29.87,WSW,248,2.3,0.0,91,0.00,SCT,,0.00,WeatherDisplay:10.37,2013-10-08 13:27:00,
2013-10-08 09:32:00,75.7,72.9,29.88,WSW,248,0.0,0.0,91,0.00,SCT,,0.00,WeatherDisplay:10.37,2013-10-08 13:32:00,
2013-10-08 09:37:00,75.9,73.1,29.88,NW,315,0.0,0.0,91,0.00,SCT,,0.00,WeatherDisplay:10.37,2013-10-08 13:37:00,
2013-10-08 09:42:00,76.1,73.0,29.89,NW,315,0.9,0.9,90,0.00,SCT,,0.00,WeatherDisplay:10.37,2013-10-08 13:42:00,
2013-10-08 09:47:00,76.3,73.1,29.88,NW,315,0.0,0.0,90,0.00,SCT,,0.00,WeatherDisplay:10.37,2013-10-08 13:47:00,
2013-10-08 09:52:00,76.3,73.1,29.89,NW,315,0.0,0.0,90,0.00,SCT,,0.00,WeatherDisplay:10.37,2013-10-08 13:52:00,
2013-10-08 09:57:00,76.3,73.1,29.89,NW,315,0.0,0.0,90,0.00,SCT,,0.00,WeatherDisplay:10.37,2013-10-08 13:57:00,
2013-10-08 10:02:00,76.6,73.5,29.89,NW,315,0.0,0.0,90,0.00,SCT,,0.00,WeatherDisplay:10.37,2013-10-08 14:02:00,
2013-10-08 10:07:00,76.6,73.5,29.89,NW,315,2.3,0.0,90,0.00,BKN,,0.00,WeatherDisplay:10.37,2013-10-08 14:07:00,
2013-10-08 10:12:00,76.8,73.3,29.89,NW,315,0.0,0.0,89,0.00,BKN,,0.00,WeatherDisplay:10.37,2013-10-08 14:12:00,
2013-10-08 10:17:00,76.8,73.3,29.89,NW,315,0.0,0.0,89,0.00,BKN,,0.00,WeatherDisplay:10.37,2013-10-08 14:17:00,
2013-10-08 10:22:00,76.8,73.3,29.89,NW,315,1.2,0.0,89,0.00,BKN,,0.00,WeatherDisplay:10.37,2013-10-08 14:22:00,
2013-10-08 10:27:00,77.0,73.5,29.89,WSW,248,2.7,2.7,89,0.00,BKN,,0.00,WeatherDisplay:10.37,2013-10-08 14:27:00,
2013-10-08 10:32:00,77.2,73.7,29.89,WSW,248,0.0,0.0,89,0.00,BKN,,0.00,WeatherDisplay:10.37,2013-10-08 14:32:00,
2013-10-08 10:37:00,77.5,74.0,29.89,WSW,248,0.4,0.0,89,0.00,BKN,,0.00,WeatherDisplay:10.37,2013-10-08 14:37:00,
2013-10-08 10:42:00,77.7,73.9,29.89,WSW,248,1.1,1.1,88,0.00,BKN,,0.00,WeatherDisplay:10.37,2013-10-08 14:42:00,
2013-10-08 10:47:00,77.7,73.9,29.89,WSW,248,0.0,0.0,88,0.00,BKN,,0.00,WeatherDisplay:10.37,2013-10-08 14:47:00,
2013-10-08 10:52:00,77.7,73.9,29.89,West,270,1.2,1.2,88,0.00,BKN,,0.00,WeatherDisplay:10.37,2013-10-08 14:52:00,
2013-10-08 10:57:00,77.9,73.7,29.90,WNW,292,0.0,0.0,87,0.00,BKN,,0.00,WeatherDisplay:10.37,2013-10-08 14:57:00,
2013-10-08 11:02:00,78.1,73.9,29.90,WNW,292,0.0,0.0,87,0.00,BKN,,0.00,WeatherDisplay:10.37,2013-10-08 15:02:00,
2013-10-08 11:07:00,78.1,73.9,29.90,WNW,292,0.0,0.0,87,0.00,OVC,,0.00,WeatherDisplay:10.37,2013-10-08 15:07:00,
2013-10-08 11:12:00,78.1,73.9,29.90,WNW,292,1.3,1.3,87,0.00,OVC,,0.00,WeatherDisplay:10.37,2013-10-08 15:12:00,
2013-10-08 11:17:00,78.4,74.2,29.90,WNW,292,0.0,0.0,87,0.00,OVC,,0.00,WeatherDisplay:10.37,2013-10-08 15:17:00,
2013-10-08 11:22:00,78.4,73.9,29.90,WNW,292,0.0,0.0,86,0.00,OVC,,0.00,WeatherDisplay:10.37,2013-10-08 15:22:00,
2013-10-08 11:25:00,82.9,73.4,29.87,ENE,66,5.0,5.0,73,0.00,FEW,FEW,0.00,WeatherDisplay:10.37,2013-10-08 15:25:00,
2013-10-08 11:27:00,78.6,74.1,29.90,WNW,292,0.0,0.0,86,0.00,OVC,,0.00,WeatherDisplay:10.37,2013-10-08 15:27:00,
2013-10-08 11:30:00,82.9,73.4,29.87,ENE,68,5.0,0.0,73,0.00,FEW,FEW,0.00,WeatherDisplay:10.37,2013-10-08 15:30:00,
2013-10-08 11:32:00,78.6,74.1,29.90,WNW,292,0.0,0.0,86,0.00,OVC,,0.00,WeatherDisplay:10.37,2013-10-08 15:32:00,
2013-10-08 11:37:00,78.6,74.1,29.90,WNW,292,0.0,0.0,86,0.00,OVC,,0.00,WeatherDisplay:10.37,2013-10-08 15:37:00,
2013-10-08 11:42:00,78.6,74.1,29.90,WNW,292,0.0,0.0,86,0.00,OVC,,0.00,WeatherDisplay:10.37,2013-10-08 15:42:00,
2013-10-08 11:45:00,82.0,73.3,29.88,ENE,69,0.0,2.0,75,0.00,FEW,FEW,0.00,WeatherDisplay:10.37,2013-10-08 15:45:00,
2013-10-08 11:47:00,78.6,74.1,29.90,WNW,292,1.2,1.2,86,0.00,OVC,,0.00,WeatherDisplay:10.37,2013-10-08 15:47:00,
2013-10-08 11:50:00,82.0,73.3,29.88,ENE,76,0.0,0.0,75,0.00,FEW,FEW,0.00,WeatherDisplay:10.37,2013-10-08 15:50:00,
2013-10-08 11:52:00,78.6,74.1,29.90,WNW,292,1.2,0.0,86,0.00,OVC,,0.00,WeatherDisplay:10.37,2013-10-08 15:52:00,
2013-10-08 11:55:00,82.0,73.3,29.88,East,90,0.0,0.0,75,0.00,FEW,FEW,0.00,WeatherDisplay:10.37,2013-10-08 15:55:00,
2013-10-08 11:57:00,79.0,74.4,29.89,NW,315,1.2,1.2,86,0.00,OVC,,0.00,WeatherDisplay:10.37,2013-10-08 15:57:00,
2013-10-08 12:00:00,82.0,73.3,29.88,East,90,0.0,0.0,75,0.00,FEW,FEW,0.00,WeatherDisplay:10.37,2013-10-08 16:00:00,
2013-10-08 12:02:00,79.3,74.4,29.90,NW,315,4.6,4.6,85,0.00,OVC,,0.00,WeatherDisplay:10.37,2013-10-08 16:02:00,
2013-10-08 12:05:00,82.0,73.3,29.88,East,90,0.0,0.0,75,0.00,FEW,FEW,0.00,WeatherDisplay:10.37,2013-10-08 16:05:00,
2013-10-08 12:07:00,79.7,74.4,29.90,SW,225,3.5,0.0,84,0.00,OVC,,0.00,WeatherDisplay:10.37,2013-10-08 16:07:00,
2013-10-08 12:10:00,82.0,73.3,29.88,East,84,0.0,0.0,75,0.00,FEW,FEW,0.00,WeatherDisplay:10.37,2013-10-08 16:10:00,
2013-10-08 12:12:00,79.9,74.3,29.90,SSW,202,0.0,0.0,83,0.00,OVC,,0.00,WeatherDisplay:10.37,2013-10-08 16:12:00,
2013-10-08 12:15:00,82.0,73.3,29.88,NE,34,0.0,0.0,75,0.00,FEW,FEW,0.00,WeatherDisplay:10.37,2013-10-08 16:15:00,
2013-10-08 12:17:00,80.2,74.2,29.89,WSW,248,1.2,1.2,82,0.00,OVC,,0.00,WeatherDisplay:10.37,2013-10-08 16:17:00,
2013-10-08 12:22:00,80.4,74.8,29.89,WNW,292,1.6,0.0,83,0.00,OVC,,0.00,WeatherDisplay:10.37,2013-10-08 16:22:00,
2013-10-08 12:27:00,80.4,74.8,29.89,WSW,248,4.9,4.9,83,0.00,OVC,,0.00,WeatherDisplay:10.37,2013-10-08 16:27:00,
2013-10-08 12:32:00,80.8,75.1,29.89,West,270,3.6,3.6,83,0.00,BKN,,0.00,WeatherDisplay:10.37,2013-10-08 16:32:00,
2013-10-08 12:37:00,81.1,75.5,29.90,West,270,1.2,1.2,83,0.00,BKN,,0.00,WeatherDisplay:10.37,2013-10-08 16:37:00,
2013-10-08 12:42:00,81.5,75.1,29.89,North,0,3.5,3.5,81,0.00,BKN,,0.00,WeatherDisplay:10.37,2013-10-08 16:42:00,
2013-10-08 12:47:00,81.7,75.3,29.89,North,0,1.2,1.2,81,0.00,BKN,,0.00,WeatherDisplay:10.37,2013-10-08 16:47:00,
2013-10-08 12:52:00,81.7,75.3,29.89,WSW,248,2.3,2.3,81,0.00,BKN,,0.00,WeatherDisplay:10.37,2013-10-08 16:52:00,
2013-10-08 12:57:00,81.9,75.5,29.88,NW,315,1.2,1.2,81,0.00,BKN,,0.00,WeatherDisplay:10.37,2013-10-08 16:57:00,
2013-10-08 13:02:00,82.0,75.6,29.88,NW,315,1.6,1.6,81,0.00,BKN,,0.00,WeatherDisplay:10.37,2013-10-08 17:02:00,
2013-10-08 13:07:00,82.0,75.6,29.88,WNW,292,2.3,2.3,81,0.00,BKN,,0.00,WeatherDisplay:10.37,2013-10-08 17:07:00,
2013-10-08 13:12:00,82.2,75.8,29.88,WSW,248,2.0,2.0,81,0.00,BKN,,0.00,WeatherDisplay:10.37,2013-10-08 17:12:00,
2013-10-08 13:17:00,82.2,75.4,29.88,WNW,292,2.3,2.3,80,0.00,BKN,,0.00,WeatherDisplay:10.37,2013-10-08 17:17:00,
2013-10-08 13:22:00,82.2,75.4,29.88,WSW,248,1.3,1.3,80,0.00,BKN,,0.00,WeatherDisplay:10.37,2013-10-08 17:22:00,
2013-10-08 13:27:00,82.2,75.1,29.87,SSW,202,1.2,1.2,79,0.00,BKN,,0.00,WeatherDisplay:10.37,2013-10-08 17:27:00,
2013-10-08 13:32:00,82.4,74.8,29.88,NE,45,3.5,3.5,78,0.00,BKN,,0.00,WeatherDisplay:10.37,2013-10-08 17:32:00,
2013-10-08 13:37:00,82.8,75.6,29.88,NE,45,3.6,3.6,79,0.00,BKN,,0.00,WeatherDisplay:10.37,2013-10-08 17:37:00,
2013-10-08 13:42:00,82.9,75.4,29.87,NW,315,4.6,4.6,78,0.00,BKN,,0.00,WeatherDisplay:10.37,2013-10-08 17:42:00,
2013-10-08 13:47:00,82.9,75.4,29.87,West,270,6.9,6.9,78,0.00,BKN,,0.00,WeatherDisplay:10.37,2013-10-08 17:47:00,
2013-10-08 13:52:00,82.9,74.6,29.87,NNW,338,2.5,2.5,76,0.00,BKN,,0.00,WeatherDisplay:10.37,2013-10-08 17:52:00,
2013-10-08 13:57:00,82.9,75.0,29.87,WSW,248,5.8,5.8,77,0.00,BKN,,0.00,WeatherDisplay:10.37,2013-10-08 17:57:00,
2013-10-08 14:02:00,83.1,74.8,29.87,North,0,4.9,4.9,76,0.00,BKN,,0.00,WeatherDisplay:10.37,2013-10-08 18:02:00,
2013-10-08 14:07:00,83.5,75.5,29.86,ENE,68,4.6,4.6,77,0.00,FEW,,0.00,WeatherDisplay:10.37,2013-10-08 18:07:00,
2013-10-08 14:12:00,83.7,74.9,29.86,ENE,68,2.3,0.0,75,0.00,FEW,,0.00,WeatherDisplay:10.37,2013-10-08 18:12:00,
2013-10-08 14:17:00,83.8,75.5,29.86,North,0,7.8,7.8,76,0.00,FEW,,0.00,WeatherDisplay:10.37,2013-10-08 18:17:00,
2013-10-08 14:22:00,84.0,75.6,29.85,WNW,292,6.9,6.9,76,0.00,FEW,,0.00,WeatherDisplay:10.37,2013-10-08 18:22:00,
2013-10-08 14:27:00,84.2,75.8,29.85,SW,225,3.5,3.5,76,0.00,FEW,,0.00,WeatherDisplay:10.37,2013-10-08 18:27:00,
2013-10-08 14:32:00,84.4,75.6,29.85,NW,315,3.5,3.5,75,0.00,FEW,,0.00,WeatherDisplay:10.37,2013-10-08 18:32:00,
2013-10-08 14:37:00,84.6,75.8,29.85,NW,315,4.2,4.2,75,0.00,FEW,,0.00,WeatherDisplay:10.37,2013-10-08 18:37:00,
2013-10-08 14:42:00,84.7,75.5,29.85,East,90,3.5,3.5,74,0.00,FEW,,0.00,WeatherDisplay:10.37,2013-10-08 18:42:00,
2013-10-08 14:47:00,84.9,76.1,29.86,West,270,3.6,3.6,75,0.00,FEW,,0.00,WeatherDisplay:10.37,2013-10-08 18:47:00,
2013-10-08 14:52:00,84.7,75.1,29.86,NE,45,3.5,3.5,73,0.00,FEW,,0.00,WeatherDisplay:10.37,2013-10-08 18:52:00,
2013-10-08 14:57:00,84.7,75.5,29.85,NW,315,4.6,4.6,74,0.00,FEW,,0.00,WeatherDisplay:10.37,2013-10-08 18:57:00,
2013-10-08 15:02:00,84.7,75.1,29.86,NNW,338,4.9,4.9,73,0.00,FEW,,0.00,WeatherDisplay:10.37,2013-10-08 19:02:00,
2013-10-08 15:07:00,84.6,74.9,29.86,East,90,5.1,5.1,73,0.00,FEW,,0.00,WeatherDisplay:10.37,2013-10-08 19:07:00,
2013-10-08 15:12:00,84.7,75.5,29.86,NNW,338,4.6,4.6,74,0.00,FEW,,0.00,WeatherDisplay:10.37,2013-10-08 19:12:00,
2013-10-08 15:17:00,84.6,74.9,29.87,NE,45,4.6,4.6,73,0.00,FEW,,0.00,WeatherDisplay:10.37,2013-10-08 19:17:00,
2013-10-08 15:22:00,84.6,74.9,29.86,SE,135,5.8,5.8,73,0.00,FEW,,0.00,WeatherDisplay:10.37,2013-10-08 19:22:00,
2013-10-08 15:27:00,84.6,74.1,29.87,ENE,68,4.6,4.6,71,0.00,FEW,,0.00,WeatherDisplay:10.37,2013-10-08 19:27:00,
2013-10-08 15:32:00,84.4,73.9,29.86,NE,45,4.0,4.0,71,0.00,FEW,,0.00,WeatherDisplay:10.37,2013-10-08 19:32:00,
2013-10-08 15:37:00,84.2,73.3,29.86,NE,45,3.5,3.5,70,0.00,FEW,,0.00,WeatherDisplay:10.37,2013-10-08 19:37:00,
2013-10-08 15:42:00,84.2,74.2,29.87,ENE,68,8.1,8.1,72,0.00,FEW,,0.00,WeatherDisplay:10.37,2013-10-08 19:42:00,
2013-10-08 15:47:00,84.0,74.0,29.87,ENE,68,4.0,4.0,72,0.00,FEW,,0.00,WeatherDisplay:10.37,2013-10-08 19:47:00,
2013-10-08 15:52:00,84.0,74.0,29.86,NW,315,6.9,6.9,72,0.00,FEW,,0.00,WeatherDisplay:10.37,2013-10-08 19:52:00,
2013-10-08 15:57:00,84.0,74.4,29.87,ENE,68,2.7,2.7,73,0.00,FEW,,0.00,WeatherDisplay:10.37,2013-10-08 19:57:00,
2013-10-08 16:02:00,84.2,74.2,29.87,NNW,338,2.3,2.3,72,0.00,FEW,,0.00,WeatherDisplay:10.37,2013-10-08 20:02:00,
2013-10-08 16:07:00,84.0,74.0,29.87,NE,45,3.5,3.5,72,0.00,FEW,,0.00,WeatherDisplay:10.37,2013-10-08 20:07:00,
2013-10-08 16:12:00,83.7,73.7,29.87,ENE,68,4.7,4.7,72,0.00,FEW,,0.00,WeatherDisplay:10.37,2013-10-08 20:12:00,
2013-10-08 16:17:00,83.1,73.2,29.87,NE,45,3.8,3.8,72,0.00,FEW,,0.00,WeatherDisplay:10.37,2013-10-08 20:17:00,
2013-10-08 16:23:00,82.8,73.2,29.87,ENE,68,1.8,1.8,73,0.00,FEW,,0.00,WeatherDisplay:10.37,2013-10-08 20:23:00,
2013-10-08 16:44:00,82.0,73.3,29.88,NE,45,2.0,2.0,75,0.00,FEW,,0.00,WeatherDisplay:10.37,2013-10-08 20:44:00,
2013-10-08 16:49:00,82.0,73.3,29.89,ENE,68,2.9,2.9,75,0.00,FEW,,0.00,WeatherDisplay:10.37,2013-10-08 20:49:00,
2013-10-08 16:54:00,81.7,73.0,29.89,NE,45,4.0,4.0,75,0.00,FEW,,0.00,WeatherDisplay:10.37,2013-10-08 20:54:00,
2013-10-08 16:59:00,81.3,72.6,29.89,ENE,68,3.8,3.8,75,0.00,FEW,,0.00,WeatherDisplay:10.37,2013-10-08 20:59:00,
2013-10-08 17:04:00,81.1,72.5,29.89,NE,45,5.8,5.8,75,0.00,BKN,,0.00,WeatherDisplay:10.37,2013-10-08 21:04:00,
2013-10-08 17:09:00,81.0,73.1,29.89,ENE,68,3.8,3.8,77,0.00,BKN,,0.00,WeatherDisplay:10.37,2013-10-08 21:09:00,
2013-10-08 17:14:00,81.0,73.1,29.90,ENE,68,3.5,3.5,77,0.00,BKN,,0.00,WeatherDisplay:10.37,2013-10-08 21:14:00,
2013-10-08 17:19:00,80.4,72.2,29.90,NE,45,5.8,5.8,76,0.00,BKN,,0.00,WeatherDisplay:10.37,2013-10-08 21:19:00,
2013-10-08 17:24:00,80.1,71.8,29.90,ENE,68,3.5,3.5,76,0.00,BKN,,0.00,WeatherDisplay:10.37,2013-10-08 21:24:00,
2013-10-08 17:29:00,79.3,71.5,29.90,ENE,68,7.4,7.4,77,0.00,BKN,,0.00,WeatherDisplay:10.37,2013-10-08 21:29:00,
2013-10-08 17:34:00,78.6,71.6,29.91,ENE,68,6.9,6.9,79,0.00,BKN,,0.00,WeatherDisplay:10.37,2013-10-08 21:34:00,
2013-10-08 17:39:00,78.1,71.8,29.91,NE,45,3.6,3.6,81,0.00,BKN,,0.00,WeatherDisplay:10.37,2013-10-08 21:39:00,
2013-10-08 17:45:00,77.5,71.6,29.91,ENE,68,5.8,5.8,82,0.00,BKN,,0.00,WeatherDisplay:10.37,2013-10-08 21:45:00,
2013-10-08 17:50:00,76.6,71.8,29.91,East,90,5.8,5.8,85,0.00,BKN,,0.00,WeatherDisplay:10.37,2013-10-08 21:50:00,
2013-10-08 17:55:00,75.9,71.4,29.91,ENE,68,8.0,8.0,86,0.00,BKN,,0.00,WeatherDisplay:10.37,2013-10-08 21:55:00,
2013-10-08 18:00:00,75.7,71.6,29.91,ENE,68,5.8,5.8,87,0.00,BKN,,0.00,WeatherDisplay:10.37,2013-10-08 22:00:00,
2013-10-08 18:05:00,75.4,71.6,29.92,ENE,68,4.5,4.5,88,0.00,-RA,,0.00,WeatherDisplay:10.37,2013-10-08 22:05:00,
2013-10-08 18:10:00,75.2,71.4,29.91,ENE,68,2.9,2.9,88,0.00,-RA,,0.00,WeatherDisplay:10.37,2013-10-08 22:10:00,
2013-10-08 18:15:00,75.0,71.2,29.91,ENE,68,0.0,0.0,88,0.00,-RA,,0.00,WeatherDisplay:10.37,2013-10-08 22:15:00,
2013-10-08 18:20:00,75.0,71.6,29.91,ENE,68,1.2,0.0,89,0.00,OVC,,0.00,WeatherDisplay:10.37,2013-10-08 22:20:00,
2013-10-08 18:25:00,74.8,71.7,29.90,NE,45,5.8,5.8,90,0.00,OVC,,0.00,WeatherDisplay:10.37,2013-10-08 22:25:00,
2013-10-08 18:30:00,74.8,71.7,29.90,ENE,68,8.3,8.3,90,0.00,OVC,,0.00,WeatherDisplay:10.37,2013-10-08 22:30:00,
2013-10-08 18:35:00,74.5,71.4,29.91,NE,45,3.5,3.5,90,0.00,OVC,,0.00,WeatherDisplay:10.37,2013-10-08 22:35:00,
2013-10-08 18:40:00,74.3,71.5,29.90,ENE,68,3.8,3.8,91,0.00,OVC,,0.00,WeatherDisplay:10.37,2013-10-08 22:40:00,
2013-10-08 18:45:00,74.1,71.3,29.90,NE,45,4.6,4.6,91,0.00,OVC,,0.00,WeatherDisplay:10.37,2013-10-08 22:45:00,
2013-10-08 18:50:00,74.1,71.6,29.90,ENE,68,2.3,2.3,92,0.00,OVC,,0.00,WeatherDisplay:10.37,2013-10-08 22:50:00,
2013-10-08 18:55:00,73.9,71.5,29.91,NE,45,3.5,0.0,92,0.00,OVC,,0.00,WeatherDisplay:10.37,2013-10-08 22:55:00,
2013-10-08 19:00:00,74.1,71.6,29.91,NE,45,3.1,0.0,92,0.00,OVC,,0.00,WeatherDisplay:10.37,2013-10-08 23:00:00,
2013-10-08 19:05:00,74.1,71.6,29.91,East,90,2.3,2.3,92,0.00,OVC,,0.00,WeatherDisplay:10.37,2013-10-08 23:05:00,
2013-10-08 19:10:00,74.1,71.6,29.91,NNE,22,3.4,3.4,92,0.00,OVC,,0.00,WeatherDisplay:10.37,2013-10-08 23:10:00,
2013-10-08 19:15:00,73.9,71.5,29.91,NNE,22,3.5,0.0,92,0.00,OVC,,0.00,WeatherDisplay:10.37,2013-10-08 23:15:00,
2013-10-08 19:20:00,73.9,71.5,29.91,NW,315,5.1,5.1,92,0.00,OVC,,0.00,WeatherDisplay:10.37,2013-10-08 23:20:00,
2013-10-08 19:25:00,73.9,71.5,29.91,ENE,68,3.5,0.0,92,0.00,OVC,,0.00,WeatherDisplay:10.37,2013-10-08 23:25:00,
2013-10-08 19:30:00,73.9,71.5,29.91,NE,45,1.2,0.0,92,0.00,OVC,,0.00,WeatherDisplay:10.37,2013-10-08 23:30:00,
2013-10-08 19:35:00,73.9,71.5,29.91,SW,225,2.3,0.0,92,0.00,SCT,,0.00,WeatherDisplay:10.37,2013-10-08 23:35:00,
2013-10-08 19:40:00,73.9,71.5,29.92,ENE,68,1.2,0.0,92,0.00,SCT,,0.00,WeatherDisplay:10.37,2013-10-08 23:40:00,
2013-10-08 19:45:00,73.9,71.5,29.92,ENE,68,8.1,8.1,92,0.00,SCT,,0.00,WeatherDisplay:10.37,2013-10-08 23:45:00,
2013-10-08 19:50:00,73.9,71.5,29.92,ENE,68,2.3,2.3,92,0.00,SCT,,0.00,WeatherDisplay:10.37,2013-10-08 23:50:00,
2013-10-08 19:55:00,73.9,71.5,29.91,ESE,112,4.9,4.9,92,0.00,SCT,,0.00,WeatherDisplay:10.37,2013-10-08 23:55:00,
2013-10-08 20:00:00,73.9,71.1,29.92,East,90,2.3,2.3,91,0.00,SCT,,0.00,WeatherDisplay:10.37,2013-10-09 00:00:00,
2013-10-08 20:05:00,73.8,71.0,29.92,ENE,68,4.6,4.6,91,0.00,BKN,,0.00,WeatherDisplay:10.37,2013-10-09 00:05:00,
2013-10-08 20:10:00,73.8,71.0,29.92,ENE,68,4.6,4.6,91,0.00,BKN,,0.00,WeatherDisplay:10.37,2013-10-09 00:10:00,
2013-10-08 20:15:00,73.6,70.8,29.92,NE,45,1.2,1.2,91,0.00,BKN,,0.00,WeatherDisplay:10.37,2013-10-09 00:15:00,
2013-10-08 20:20:00,73.6,70.8,29.92,NW,315,3.5,3.5,91,0.00,BKN,,0.00,WeatherDisplay:10.37,2013-10-09 00:20:00,
2013-10-08 20:25:00,73.6,70.8,29.92,NNW,338,1.2,1.2,91,0.00,BKN,,0.00,WeatherDisplay:10.37,2013-10-09 00:25:00,
2013-10-08 20:30:00,73.6,70.8,29.93,East,90,0.0,0.0,91,0.00,BKN,,0.00,WeatherDisplay:10.37,2013-10-09 00:30:00,
2013-10-08 20:35:00,73.6,70.8,29.93,East,90,2.7,2.7,91,0.00,BKN,,0.00,WeatherDisplay:10.37,2013-10-09 00:35:00,
2013-10-08 20:40:00,73.6,71.1,29.93,SE,135,0.0,0.0,92,0.00,BKN,,0.00,WeatherDisplay:10.37,2013-10-09 00:40:00,
2013-10-08 20:45:00,73.6,70.8,29.94,ENE,68,1.3,1.3,91,0.00,BKN,,0.00,WeatherDisplay:10.37,2013-10-09 00:45:00,
2013-10-08 20:50:00,73.4,70.6,29.94,ENE,68,2.0,2.0,91,0.00,OVC,,0.00,WeatherDisplay:10.37,2013-10-09 00:50:00,
2013-10-08 20:55:00,73.2,70.4,29.94,NE,45,3.8,3.8,91,0.00,OVC,,0.00,WeatherDisplay:10.37,2013-10-09 00:55:00,
2013-10-08 21:00:00,73.2,70.4,29.94,ENE,68,6.9,6.9,91,0.00,OVC,,0.00,WeatherDisplay:10.37,2013-10-09 01:00:00,
2013-10-08 21:05:00,73.2,70.4,29.95,NE,45,3.5,3.5,91,0.00,SCT,,0.00,WeatherDisplay:10.37,2013-10-09 01:05:00,
2013-10-08 21:10:00,73.2,70.4,29.94,ENE,68,0.0,0.0,91,0.00,SCT,,0.00,WeatherDisplay:10.37,2013-10-09 01:10:00,
2013-10-08 21:15:00,73.0,70.3,29.95,NE,45,2.5,2.5,91,0.00,SCT,,0.00,WeatherDisplay:10.37,2013-10-09 01:15:00,
2013-10-08 21:20:00,73.0,70.3,29.95,NNW,338,0.0,0.0,91,0.00,BKN,,0.00,WeatherDisplay:10.37,2013-10-09 01:20:00,
2013-10-08 21:25:00,73.0,70.3,29.95,ENE,68,4.5,4.5,91,0.00,BKN,,0.00,WeatherDisplay:10.37,2013-10-09 01:25:00,
2013-10-08 21:30:00,73.0,70.3,29.95,WNW,292,4.6,4.6,91,0.00,BKN,,0.00,WeatherDisplay:10.37,2013-10-09 01:30:00,
2013-10-08 21:35:00,73.0,70.3,29.95,ENE,68,0.0,0.0,91,0.00,BKN,,0.00,WeatherDisplay:10.37,2013-10-09 01:35:00,
2013-10-08 21:40:00,73.0,69.9,29.95,ENE,68,4.9,4.9,90,0.00,BKN,,0.00,WeatherDisplay:10.37,2013-10-09 01:40:00,
2013-10-08 21:45:00,73.0,69.9,29.95,ENE,68,4.6,4.6,90,0.00,BKN,,0.00,WeatherDisplay:10.37,2013-10-09 01:45:00,
2013-10-08 21:50:00,73.0,69.9,29.96,NE,45,6.9,6.9,90,0.00,BKN,,0.00,WeatherDisplay:10.37,2013-10-09 01:50:00,
2013-10-08 21:55:00,72.9,69.8,29.96,NE,45,2.2,2.2,90,0.00,BKN,,0.00,WeatherDisplay:10.37,2013-10-09 01:55:00,
2013-10-08 22:00:00,72.9,69.8,29.96,East,90,2.7,2.7,90,0.00,BKN,,0.00,WeatherDisplay:10.37,2013-10-09 02:00:00,
2013-10-08 22:05:00,72.7,69.6,29.96,NE,45,4.6,4.6,90,0.00,OVC,,0.00,WeatherDisplay:10.37,2013-10-09 02:05:00,
2013-10-08 22:10:00,72.9,69.8,29.96,NE,45,1.3,1.3,90,0.00,OVC,,0.00,WeatherDisplay:10.37,2013-10-09 02:10:00,
2013-10-08 22:15:00,72.9,69.8,29.96,ENE,68,5.6,5.6,90,0.00,OVC,,0.00,WeatherDisplay:10.37,2013-10-09 02:15:00,
2013-10-08 22:20:00,72.7,69.6,29.96,NNE,22,2.5,2.5,90,0.00,OVC,,0.00,WeatherDisplay:10.37,2013-10-09 02:20:00,
2013-10-08 22:25:00,72.7,69.6,29.96,ENE,68,3.5,3.5,90,0.00,OVC,,0.00,WeatherDisplay:10.37,2013-10-09 02:25:00,
2013-10-08 22:30:00,72.7,69.6,29.96,ENE,68,8.1,8.1,90,0.00,OVC,,0.00,WeatherDisplay:10.37,2013-10-09 02:30:00,
2013-10-08 22:35:00,72.7,69.6,29.97,ENE,68,1.2,1.2,90,0.00,OVC,,0.00,WeatherDisplay:10.37,2013-10-09 02:35:00,
2013-10-08 22:40:00,72.7,69.6,29.97,NNE,22,2.3,0.0,90,0.00,OVC,,0.00,WeatherDisplay:10.37,2013-10-09 02:40:00,
2013-10-08 22:45:00,72.7,69.6,29.97,NE,34,1.0,3.0,90,0.00,OVC,OVC,0.00,WeatherDisplay:10.37,2013-10-09 02:45:00,
2013-10-08 22:50:00,72.7,69.6,29.97,NNE,25,0.0,2.0,90,0.00,OVC,OVC,0.00,WeatherDisplay:10.37,2013-10-09 02:50:00,
2013-10-08 22:55:00,72.7,69.6,29.97,NNE,26,0.0,3.0,90,0.00,OVC,OVC,0.00,WeatherDisplay:10.37,2013-10-09 02:55:00,
2013-10-08 23:00:00,72.7,69.6,29.97,NE,56,0.0,3.0,90,0.00,OVC,OVC,0.00,WeatherDisplay:10.37,2013-10-09 03:00:00,
2013-10-08 23:05:00,72.7,69.6,29.97,NE,54,0.0,3.0,90,0.00,OVC,OVC,0.00,WeatherDisplay:10.37,2013-10-09 03:05:00,
2013-10-08 23:10:00,72.7,69.2,29.97,NE,37,0.0,3.0,89,0.00,OVC,OVC,0.00,WeatherDisplay:10.37,2013-10-09 03:10:00,
2013-10-08 23:15:00,72.7,69.2,29.97,NNE,15,0.0,3.0,89,0.00,OVC,OVC,0.00,WeatherDisplay:10.37,2013-10-09 03:15:00,
2013-10-08 23:20:00,72.7,69.2,29.97,North,1,1.0,5.0,89,0.00,OVC,OVC,0.00,WeatherDisplay:10.37,2013-10-09 03:20:00,
2013-10-08 23:25:00,72.7,69.2,29.97,North,359,0.0,3.0,89,0.00,OVC,OVC,0.00,WeatherDisplay:10.37,2013-10-09 03:25:00,
2013-10-08 23:30:00,72.7,69.2,29.98,North,355,0.0,3.0,89,0.00,OVC,OVC,0.00,WeatherDisplay:10.37,2013-10-09 03:30:00,
2013-10-08 23:35:00,72.6,69.2,29.98,NNE,26,0.0,4.0,89,0.00,OVC,OVC,0.00,WeatherDisplay:10.37,2013-10-09 03:35:00,
2013-10-08 23:40:00,72.7,69.2,29.98,NNE,32,0.0,2.0,89,0.00,OVC,OVC,0.00,WeatherDisplay:10.37,2013-10-09 03:40:00,
2013-10-08 23:45:00,72.7,69.6,29.98,NE,45,1.2,0.0,90,0.00,OVC,,0.00,WeatherDisplay:10.37,2013-10-09 03:45:00,
2013-10-08 23:50:00,72.7,69.6,29.98,ENE,68,5.6,5.6,90,0.00,OVC,,0.00,WeatherDisplay:10.37,2013-10-09 03:50:00,
2013-10-08 23:55:00,72.7,69.2,29.97,NNE,22,1.3,1.3,89,0.00,OVC,,0.00,WeatherDisplay:10.37,2013-10-09 03:55:00,